Regional Weather Roundup
Issued by NWS Kansas City/Pleasant Hill, MO

Home | Current Version | Previous Version | Text Only | Print | Product List | Glossary On
Versions: 1 2 3 4 5 6 7 8 9 10 11 12 13 14 15 16 17 18 19 20 21 22 23 24 25 26 27 28 29 30 31 32 33 34 35 36 37 38 39 40 41 42 43 44 45 46 47 48 49 50
000
ASUS43 KEAX 280510
RWREAX

WEATHER ROUNDUP FOR EASTERN KANSAS AND NORTHWEST MISSOURI
NATIONAL WEATHER SERVICE KANSAS CITY/PLEASANT HILL MO
1200 AM CDT FRI APR 28 2017

KSZ040-057-103>105-MOZ028-029-037-043-280600-
...KANSAS CITY METROPOLITAN AREA...

CITY           SKY/WX    TMP DP  RH WIND       PRES   REMARKS
K.C. INTL      CLOUDY    51  47  86 E9        29.76S
K.C. DOWNTOWN  CLOUDY    53  47  79 NE8       29.75F
LEES SUMMIT    CLOUDY    52  49  89 E8        29.76S
OLATHE - IXD   CLOUDY    52  47  83 E9        29.75S
OLATHE - OJC   CLOUDY    50  49  96 E7        29.75S
LAWRENCE       CLOUDY    52  47  83 NE9       29.74S

$$

MOZ001>008-011>017-020>025-030>033-038>040-044>046-053-054-280600-
...NORTHERN AND CENTRAL MISSOURI...

CITY           SKY/WX    TMP DP  RH WIND       PRES   REMARKS
ST. JOSEPH     CLOUDY    50  48  93 NE6       29.77R
WHITEMAN AFB   CLOUDY    53  53  99 SE3       29.78R
CLINTON        CLOUDY    54  46  76 CALM      29.79R
SEDALIA        CLOUDY    54  49  83 SE5       29.80R
WARSAW         NOT AVBL
CHILLICOTHE      N/A     50  49  96 CALM      29.80R
KIRKSVILLE     CLOUDY    51  48  89 NE7       29.76F

$$

MOZ041-047>049-056>058-063>065-088>090-097-280600-
...EASTERN AND SOUTHERN MISSOURI...

CITY           SKY/WX    TMP DP  RH WIND       PRES   REMARKS
ST. LOUIS INTL CLOUDY    57  48  72 E7        29.83F
SPIRIT OF STL  CLOUDY    55  50  83 E8        29.79F
COLUMBIA       CLOUDY    54  46  74 E8        29.79R
JEFFERSON CITY CLOUDY    57  45  64 E7        29.79R
ROLLA          CLOUDY    53  46  77 E6        29.81R
OSAGE BEACH    CLOUDY    55  47  74 E3        29.80R
SPRINGFIELD    MOCLDY    58  47  66 SE7       29.77S
BRANSON        CLOUDY    55  48  76 CALM      29.82R
JOPLIN         LGT RAIN  56  50  80 SE7       29.73F
WEST PLAINS    CLOUDY    56  50  80 E6        29.81S

$$

IAZ060-094-KSZ022-034>040-054-083-096-NEZ052-066-093-280600-
...KANSAS...SOUTHEAST NEBRASKA AND IOWA...

CITY           SKY/WX    TMP DP  RH WIND       PRES   REMARKS
TOPEKA         LGT RAIN  52  47  83 E10       29.73F
MANHATTAN      CLOUDY    50  46  86 E10       29.70F
EMPORIA        CLOUDY    50  49  96 E13       29.69S
CHANUTE        CLOUDY    55  47  74 SE10      29.69F
WICHITA        MOCLDY    55  46  71 E14       29.61R
OMAHA          MOCLDY    47  36  65 W6        29.77S
LINCOLN        CLOUDY    51  43  74 CALM      29.77R
FALLS CITY     CLOUDY    49  47  93 CALM      29.75R
LAMONI         CLOUDY    50  39  66 NE8       29.78F
DES MOINES     CLOUDY    44  32  62 NE10      29.84R

$$




USA.gov is the U.S. government's official web portal to all federal, state and local government web resources and services.